星链-11426 (STARLINK-11426)

导读 | 星芒AI

STARLINK-11426 是 SpaceX Starlink 卫星互联网项目中的一颗低轨卫星,属于第5批(v1.5)部署的“星链”卫星之一。该卫星于2020年11月25日由猎鹰9号火箭从美国卡纳维拉尔角发射升空,主要用于提供全球宽带互联网服务。它运行在约550公里高的近地轨道,设计寿命为5至7年,并配备推进系统以进行轨道调整和最终受控再入大气层,减少太空垃圾风险。

基本信息
目录编号:
62058
目录名称:
STARLINK-11426
国际标识:
2024-217B
轨道中心:
EARTH
卫星名称:
星链-11426
卫星全名:
星链-11426 (STARLINK-11426)
卫星状态:
在轨 (已飞行339 天)
发射日期:
2024-11-24 UTC
国别 :
美国 (US)
星等 :
--
轨道信息
数据来源 国际轨道数据
星历时间: 2025-10-28T19:45:37+0800
22小时前
查看轨道信息
半长轴: 6737.656km
偏心率: 0.0002528
轨道倾角: 53.157°
近地点辐角 145.265°
升交点赤经 2.694°
平近点角 214.854°
近地点: 357.817km
远地点: 361.225km
周期: 91.732分钟
每日圈数: 15.697828
详细信息
固有亮度:
5
最大亮度:
2.5
卫星平台:
Starlink V1.0
覆盖范围:
全球
运营商:
太空探索技术公司
运营商所在国:
美国
制造商(研发单位):
太空探索技术公司
制造商所在国:
美国
使用方式:
暂无
卫星简介
Starlink 计划是 SpaceX 推出的全球卫星互联网项目,通过发射低轨道卫星,为全球尤其是偏远地区提供高速、低延迟的互联网服务。自 2019 年起,Starlink 已部署数千颗卫星,旨在缩小全球数字鸿沟,推动互联网普及。该项目还为军事、航空等行业提供通信支持,带来广泛经济效益。
2D轨道图
3D轨道图
轨道高度分析图
轨道倾角分析图
轨道综合分析图
查看轨道综合分析图